Presure
303 281 300 293 288 294 283 281 294 293 295 311 322 303 327 279 286 301 283 280 277 266 264 237 171 190 188 191 206 200 208 206 199 210 205 195 201 207 207 205 199 209 199 199 206 208 204 233 243 87 227 93 187 237
304 295 283 288 292 290 300 290 280 292 289 294 301 310 293 274 271 300 297 300 295 269 261 261 253 213 214 213 215 214 212 212 213 210 211 211 199 205 215 215 209 208 240 227 228 238 229 234 245 238 234 254 244 243
318 299 295 282 289 288 288 283 291 295 309 309 311 299 328 275 273 267 274 307 290 303 286 263 259 262 262 257 227 210 210 209 211 213 210 214 215 213 226 231 227 230 237 230 229 244 244 245 249 244 238 257 257 257
360 323 306 304 294 277 294 284 292 285 282 295 316 300 305 308 290 269 265 271 282 283 293 289 274 264 262 262 261 257 252 260 248 247 247 248 238 240 243 247 242 243 246 252 249 258 271 262 250 269 261 260 235 266
339 397 331 318 306 299 287 282 287 295 295 292 283 300 311 299 306 270 264 267 274 270 281 284 289 285 286 291 284 266 257 256 255 260 262 262 254 251 256 257 250 268 274 272 266 226 264 266 265 255 257 271 272 282
315 305 400 397 392 309 305 298 284 281 279 275 296 291 281 294 287 292 283 290 256 260 306 296 309 270 274 276 278 275 274 274 283 258 287 287 289 274 279 271 258 263 269 213 271 271 268 260 268 269 276 294 291 277
330 320 313 300 396 392 330 310 297 290 287 279 285 277 273 292 280 284 289 287 282 301 281 276 255 257 259 265 272 275 280 279 280 275 271 268 271 265 262 264 262 246 279 275 264 259 266 269 272 286 279 267 283 276
329 319 304 314 351 379 376 383 322 311 301 292 286 275 271 285 283 273 287 290 284 287 292 280 280 284 281 285 269 255 254 255 257 256 256 259 255 258 254 254 262 264 260 267 273 275 271 286 287 292 297 292 293 305
324 362 373 369 361 353 353 362 360 363 377 371 309 304 302 287 296 285 279 281 294 279 278 287 285 271 276 275 284 277 283 284 287 278 277 278 268 276 276 272 268 267 266 270 273 277 287 286 299 298 313 318 344 333
439 441 404 380 363 347 338 342 343 345 344 351 392 383 313 303 307 283 296 289 282 282 273 270 267 289 297 287 277 278 276 274 276 280 281 275 280 288 288 291 292 297 296 286 289 284 299 338 349 347 340 412 418 381
428 430 399 388 363 345 334 336 337 335 360 360 362 371 383 374 315 311 309 313 294 294 284 277 279 279 278 272 268 269 271 275 278 271 271 274 274 275 282 281 286 287 306 332 310 341 339 364 393 378 394 380 339 341
421 407 387 386 356 337 335 336 329 341 357 351 345 348 346 354 365 371 357 321 316 317 296 291 284 278 277 272 275 289 292 291 288 283 281 277 279 284 290 309 320 332 328 328 328 369 365 356 353 338 337 330 327 326
427 394 377 361 345 339 337 326 324 332 347 347 341 334 334 331 332 336 335 341 343 353 353 353 356 346 350 332 349 335 326 278 335 333 331 330 335 335 331 327 324 315 314 337 337 332 326 318 309 316 310 305 299 292
362 355 348 341 339 339 329 324 321 327 327 337 342 331 325 326 326 323 323 322 325 326 326 331 334 330 330 326 327 328 330 327 322 317 315 325 322 316 318 357 347 329 328 319 309 306 297 299 301 304 287 294 297 295
373 369 360 351 336 333 332 325 312 314 320 319 328 335 336 330 323 318 316 315 317 319 318 315 314 315 318 318 319 322 323 324 320 317 327 344 349 344 335 320 318 307 315 297 296 289 290 288 281 283 286 284 274 275
308 374 373 372 369 344 335 327 322 316 313 311 317 319 321 327 330 332 332 332 331 328 329 330 330 331 332 336 338 354 344 334 337 333 333 332 328 319 309 302 299 301 290 288 285 289 285 278 287 286 284 276 280 280
319 314 504 424 377 377 361 341 328 313 317 313 310 308 313 317 317 316 316 316 313 317 318 322 322 333 332 329 341 331 326 325 323 319 313 313 309 303 294 290 292 289 287 288 294 273 287 287 284 285 286 287 289 280
332 321 457 436 397 374 374 381 351 321 314 316 317 312 308 303 302 303 313 322 321 316 312 332 324 321 319 315 315 316 316 305 304 306 307 300 300 302 290 283 284 277 274 277 283 291 283 276 276 279 277 278 297 300
338 331 320 368 382 392 385 379 370 361 336 323 323 316 311 309 307 301 305 313 312 322 322 318 313 315 311 311 310 301 301 297 293 298 289 286 287 288 287 292 295 298 294 291 290 291 295 293 304 308 305 282 294 319
349 336 325 319 315 307 356 359 363 360 357 358 340 326 320 312 312 307 306 315 310 310 314 309 309 308 299 299 297 294 293 289 286 290 284 281 286 286 288 287 273 277 297 289 289 269 307 279 284 340 340 320 303 303
362 344 338 328 321 312 308 309 306 347 344 342 341 337 332 327 319 312 312 310 304 303 310 311 302 302 296 294 293 291 289 283 282 284 286 284 287 287 290 287 299 279 274 316 306 304 304 311 305 298 294 288 289 291
378 362 352 342 328 319 316 310 296 294 347 337 334 326 326 326 321 319 311 307 304 302 302 307 304 299 299 295 292 293 285 287 295 293 290 293 298 287 291 288 291 308 288 306 296 291 290 292 277 292 292 293 300 302
406 392 370 356 344 336 313 312 308 302 305 316 344 343 333 325 321 315 316 313 309 306 317 311 307 300 299 297 297 293 291 293 296 297 300 295 283 296 281 284 281 297 288 308 295 288 288 286 284 290 289 288 291 292
442 416 400 381 360 342 343 328 318 310 307 302 288 300 342 344 341 334 327 325 321 319 313 318 320 314 310 310 308 303 297 295 294 296 296 298 289 286 290 298 311 324 314 281 303 285 291 276 277 293 288 286 282 290
456 398 440 419 400 375 354 342 337 326 316 310 307 290 281 303 339 344 340 337 333 329 325 322 320 320 320 316 317 314 312 316 313 309 306 300 304 323 361 312 330 282 299 290 286 307 287 285 288 287 290 285 286 286
307 467 466 451 426 405 384 366 354 344 339 326 319 310 305 298 295 286 309 320 327 325 326 334 344 345 341 337 333 330 334 334 328 333 339 340 339 330 322 309 311 318 283 288 297 293 293 296 294 285 284 287 281 284
295 310 485 479 467 445 416 390 376 363 350 346 335 328 319 315 305 285 291 301 296 293 300 314 325 325 330 340 343 343 337 332 336 338 336 336 323 319 321 320 309 305 307 303 294 292 293 297 297 295 291 285 289 295
287 299 311 378 494 482 461 443 422 393 380 367 355 345 339 331 319 303 300 301 292 292 296 287 281 278 287 312 324 325 325 326 327 323 322 322 321 321 312 335 332 333 311 307 307 306 306 305 305 300 297 294 291 294
292 286 302 319 495 441 407 392 459 451 429 412 395 376 358 349 344 327 310 302 298 296 297 286 291 289 280 282 276 279 295 302 308 311 325 325 331 331 332 329 324 322 332 338 334 319 318 318 316 310 312 312 315 315
292 289 310 308 337 456 433 411 379 414 451 441 432 419 402 388 367 346 333 325 312 305 300 294 287 293 302 288 288 286 285 276 274 274 286 312 317 312 311 326 331 336 339 341 339 339 325 335 330 328 327 324 322 319
292 295 325 322 313 357 466 432 405 382 371 455 448 442 438 430 416 394 380 338 324 324 319 311 305 301 300 300 289 288 279 278 286 283 278 275 274 275 278 284 288 307 318 318 317 319 325 346 350 345 333 329 323 321
291 307 318 330 320 325 371 457 423 398 377 368 452 444 438 437 428 423 424 423 375 331 318 318 317 312 306 305 313 287 299 294 287 277 267 266 274 270 281 270 269 270 271 277 282 291 330 329 332 347 357 356 345 332
299 302 317 326 333 324 348 470 457 422 394 376 365 468 446 441 437 452 442 405 407 407 395 339 328 326 324 322 316 300 296 300 304 287 283 286 293 283 279 272 273 275 273 268 267 267 266 266 270 273 279 320 359 366
Wind_Speed
26 16 24 21 24 29 33 34 37 38 38 32 42 71 66 93 94 91 104 110 117 120 121 136 75 94 95 98 115 106 113 110 105 118 117 103 109 118 118 113 106 122 110 111 119 121 110 121 117 24 104 35 80 113
32 28 21 22 27 29 27 36 42 47 51 52 53 52 84 91 91 84 91 93 99 111 119 118 118 125 127 125 127 127 122 121 123 119 121 122 105 118 126 125 119 121 121 124 124 119 119 118 116 116 117 117 117 108
45 33 31 27 30 30 34 34 31 33 32 38 38 54 42 86 87 89 91 81 91 88 105 114 111 112 115 121 125 122 121 118 123 128 124 126 128 127 128 125 124 122 120 120 119 115 116 115 115 116 117 113 111 111
40 46 41 39 36 31 38 35 39 38 39 35 41 44 45 49 80 88 89 86 85 89 87 94 106 111 113 114 114 116 119 116 123 125 125 124 125 122 121 120 119 118 118 116 116 110 105 107 110 106 108 108 97 113
14 27 44 50 45 45 38 37 38 41 43 44 45 47 48 52 55 84 84 83 83 86 85 89 86 90 89 91 102 112 114 114 115 113 112 113 117 117 118 114 115 107 105 105 101 85 104 104 102 105 109 114 115 111
18 18 19 29 38 53 51 49 45 43 44 45 52 54 53 56 58 59 68 69 86 87 70 82 80 92 92 93 95 99 103 105 95 114 91 91 90 102 91 93 93 103 104 82 101 103 104 105 109 111 115 111 109 107
18 19 21 21 25 30 59 60 54 52 54 51 51 52 54 64 62 66 69 72 72 70 80 82 90 90 92 94 95 94 92 92 89 91 95 97 94 96 97 94 103 98 100 102 106 100 105 109 109 109 109 103 109 103
18 20 21 24 25 25 31 34 63 64 64 63 61 59 59 66 67 64 69 73 72 74 75 83 81 82 87 87 94 94 94 96 98 99 99 100 100 102 100 106 105 105 100 104 111 109 108 111 107 104 107 109 108 105
20 28 28 25 24 26 27 27 31 36 37 45 66 65 67 67 73 75 70 73 76 77 76 78 84 86 86 85 80 86 85 88 92 99 99 98 104 103 104 105 103 102 102 106 105 104 103 102 110 95 92 92 72 70
19 22 26 26 24 24 25 24 25 26 29 32 23 42 66 67 68 69 80 78 78 77 74 73 72 81 89 90 87 87 87 88 92 94 95 93 93 95 98 99 104 102 100 94 92 89 103 81 64 63 64 29 18 15
14 23 26 23 24 25 25 23 22 22 20 22 23 23 24 36 69 68 72 77 80 85 81 78 80 83 79 76 76 78 82 83 84 81 82 86 88 89 91 91 96 96 93 63 90 59 58 41 14 14 8 11 21 19
19 24 25 23 24 24 23 22 19 16 17 21 23 23 24 25 25 27 44 70 71 76 84 85 81 77 77 78 81 90 93 94 94 90 90 87 89 94 98 82 68 48 48 46 47 16 7 6 7 12 14 16 17 11
25 21 17 19 19 20 20 18 16 15 15 19 23 25 26 28 29 29 31 32 33 30 35 38 41 54 45 68 48 62 65 84 54 53 53 53 50 45 43 41 41 42 42 23 15 11 8 7 11 13 13 11 10 14
12 9 8 10 13 17 18 16 15 15 16 15 18 23 25 25 26 28 28 30 31 32 32 31 32 36 39 42 42 42 41 42 44 45 46 39 38 39 36 21 23 24 20 20 19 16 17 11 10 11 15 13 11 11
4 1 6 10 14 15 15 16 18 17 16 16 17 18 20 23 26 27 28 29 29 29 30 31 33 34 35 36 38 38 38 37 38 39 33 26 21 20 21 22 22 23 23 24 22 23 20 18 21 20 17 16 23 22
22 8 15 16 19 21 20 20 21 21 19 18 18 18 17 18 19 19 20 22 24 26 27 28 30 29 30 30 28 22 22 25 25 24 23 20 19 21 22 22 22 21 23 22 23 25 25 24 24 21 23 25 25 25
17 18 16 28 23 21 23 22 22 23 23 22 21 19 18 19 19 18 19 19 21 22 21 21 22 21 22 20 19 22 24 28 27 26 18 17 21 22 24 23 23 22 23 23 26 26 28 27 26 27 28 28 27 29
17 16 7 25 24 16 13 17 23 29 26 26 24 19 20 20 18 17 17 19 20 19 20 19 20 21 23 24 24 24 29 27 24 21 19 19 19 22 23 22 23 24 25 25 27 31 29 26 26 28 29 30 35 34
17 17 16 7 5 11 11 12 17 20 27 27 25 23 23 23 21 19 19 20 20 20 21 22 22 24 24 23 25 25 25 24 22 23 21 22 22 22 23 25 27 28 31 33 33 33 35 33 35 33 32 29 31 28
15 15 14 13 11 10 4 6 7 10 14 17 24 24 24 24 23 22 21 21 20 20 22 23 23 24 24 24 24 22 21 22 22 24 26 26 26 26 26 25 23 23 27 27 27 27 26 28 28 20 17 18 21 21
13 14 12 11 11 10 9 7 6 8 10 11 14 18 21 23 23 23 22 22 21 20 22 25 26 27 27 26 26 26 26 26 28 29 31 29 31 30 29 25 27 24 27 17 17 17 18 17 17 18 18 19 20 20
13 15 15 14 12 11 9 9 9 8 8 10 13 16 17 20 22 22 23 23 23 23 23 28 29 29 30 31 30 30 28 29 33 33 32 35 35 26 27 28 30 28 24 20 20 20 21 21 22 21 20 19 17 16
17 17 19 18 17 15 14 13 11 10 7 8 15 18 20 21 22 21 23 24 25 26 31 32 35 35 35 33 35 36 35 35 36 35 37 29 26 29 31 32 28 31 26 26 25 25 25 24 24 22 20 18 16 16
19 20 20 21 22 21 22 19 18 17 16 14 13 12 17 20 23 24 26 26 26 29 29 33 38 41 40 43 44 42 38 35 35 36 37 38 34 33 36 37 36 34 34 29 32 30 29 27 26 24 23 22 20 18
23 24 23 23 24 27 29 27 26 25 24 22 20 20 17 16 22 24 25 28 29 30 31 34 36 39 42 41 43 42 42 47 46 43 41 37 36 43 27 32 28 30 32 31 32 37 33 31 31 28 28 26 24 23
67 23 28 24 23 28 31 35 35 33 34 31 29 27 26 22 19 21 23 24 26 27 28 31 35 38 40 41 41 40 40 39 40 40 38 35 31 30 30 31 29 33 33 34 36 36 36 38 37 32 30 31 30 29
65 66 25 24 31 30 31 35 39 41 41 39 36 37 35 29 26 29 32 30 25 22 23 25 27 27 28 29 29 30 31 31 32 33 32 33 33 32 33 35 36 36 37 38 39 38 38 40 40 38 37 37 38 38
63 63 63 47 27 29 32 37 40 43 46 46 45 44 42 38 35 37 38 36 29 25 24 25 26 26 25 26 27 27 28 28 28 28 28 29 29 29 30 36 38 40 41 40 42 42 42 43 44 43 42 42 42 42
63 61 62 63 24 23 23 24 40 44 46 47 49 51 49 47 46 43 44 43 39 34 33 31 29 31 31 28 25 23 22 24 24 25 27 28 28 29 30 31 32 33 35 39 43 44 45 47 47 46 46 47 49 47
64 61 63 60 61 26 26 24 24 30 43 45 47 49 49 52 53 49 46 46 45 44 42 38 34 35 35 34 33 31 27 26 25 25 24 26 27 25 24 28 28 29 31 33 35 37 36 41 42 44 43 43 42 41
63 62 68 63 60 57 27 25 24 25 26 41 42 43 44 48 51 52 51 50 48 49 49 47 45 43 40 38 36 37 35 33 31 30 31 30 28 27 26 25 24 25 27 28 28 28 29 33 35 37 37 36 35 34
63 68 68 64 59 60 53 24 25 26 26 26 42 43 43 42 45 45 44 44 50 52 50 49 49 50 47 43 40 43 42 40 38 37 37 37 36 34 34 33 32 31 30 28 26 25 29 29 29 29 31 34 37 36
63 64 68 65 61 58 58 27 24 24 25 26 25 41 40 39 35 31 32 40 39 38 43 52 53 55 57 54 45 44 48 46 43 43 43 43 42 42 41 39 38 37 37 36 35 34 33 32 30 28 26 27 29 33
Wind_Direction
214 217 186 188 184 176 175 172 161 171 174 178 188 197 201 209 214 217 222 224 225 227 229 232 237 241 244 246 246 249 249 251 255 255 258 261 264 265 266 267 269 270 274 276 278 279 279 283 283 247 284 262 285 290
216 215 209 207 192 193 188 190 190 180 186 193 196 197 206 208 213 216 219 220 225 227 232 233 235 240 242 245 246 248 251 253 254 256 258 261 265 267 267 268 271 273 270 273 275 277 279 281 281 283 285 285 286 288
214 225 216 210 211 206 202 208 198 198 194 199 199 205 186 212 213 218 221 222 226 226 230 234 235 237 239 241 245 249 251 253 255 256 259 261 262 264 264 264 267 269 270 272 274 275 276 277 277 279 281 283 284 284
218 219 223 220 217 214 213 211 211 212 210 203 195 200 199 203 216 220 223 223 223 226 229 232 235 237 238 240 242 243 246 247 250 253 255 257 260 262 264 264 266 267 268 268 270 272 273 274 278 280 283 283 282 282
224 224 223 223 224 223 219 215 213 209 205 208 210 202 201 200 206 221 225 226 226 227 228 231 230 235 240 241 244 245 248 250 252 254 256 258 260 261 262 264 266 267 269 270 272 273 277 278 278 278 278 277 280 282
225 222 223 223 229 225 224 222 222 221 215 211 207 206 210 206 207 208 215 218 229 230 224 228 230 236 238 239 240 243 245 247 250 252 255 257 256 260 261 265 268 270 269 272 275 276 276 279 281 279 279 279 280 280
235 234 230 230 225 224 222 226 224 223 223 221 217 216 215 211 215 214 213 218 219 219 225 231 235 237 238 239 240 242 243 245 247 249 251 255 257 259 263 264 264 271 270 268 275 279 280 280 280 279 278 279 281 283
246 249 255 252 235 227 225 226 223 225 227 226 221 219 217 219 221 221 221 222 222 221 224 226 229 231 235 237 242 247 250 252 253 255 257 258 261 262 264 266 268 269 274 276 274 277 279 277 278 279 281 280 283 284
270 254 245 237 230 226 224 222 224 224 229 228 225 225 224 222 220 222 225 226 227 225 225 229 231 234 237 239 239 242 244 244 244 248 251 252 255 255 257 261 265 267 271 272 274 275 279 281 282 280 282 282 282 280
207 203 211 214 211 214 218 222 224 226 225 223 222 229 227 223 223 223 228 228 228 229 231 233 235 237 239 240 243 245 248 251 253 254 254 258 260 263 264 266 267 269 272 274 279 283 283 275 281 279 278 275 271 260
171 164 188 194 191 195 205 211 214 220 209 212 215 214 215 223 230 230 228 231 232 232 233 236 239 242 244 246 247 250 252 254 256 257 260 263 265 266 269 272 275 277 277 274 279 275 277 279 266 268 255 175 240 239
138 143 158 178 176 184 194 199 204 207 196 199 202 201 206 207 210 215 227 236 237 237 236 237 239 242 244 247 249 251 253 256 258 259 261 262 266 270 271 271 271 267 270 272 273 261 245 239 229 229 212 211 234 250
141 144 151 161 169 184 188 192 196 197 191 194 198 201 203 206 206 208 213 216 222 223 231 236 239 244 241 249 246 254 253 258 255 253 255 257 258 260 260 263 264 264 266 254 240 223 212 225 244 215 231 248 248 258
70 87 121 157 178 186 193 193 195 195 194 192 198 205 208 209 211 213 217 221 223 225 226 228 231 233 235 238 240 243 245 246 248 248 250 256 258 258 259 228 222 235 226 216 227 228 245 232 215 223 248 253 264 262
30 283 225 195 204 214 202 198 207 212 205 203 197 202 208 213 216 218 222 225 228 230 232 234 237 239 243 245 246 247 248 250 249 251 249 242 230 223 212 225 223 231 213 234 234 247 254 242 256 260 260 262 263 266
10 304 259 244 218 211 213 205 206 216 215 214 210 207 207 206 211 215 220 224 227 230 233 236 239 240 240 240 239 225 223 226 215 214 224 208 206 210 215 223 231 226 235 245 253 253 258 257 261 258 258 264 267 268
8 4 226 197 216 214 211 212 203 217 223 221 215 214 210 210 213 215 217 219 221 222 222 222 223 220 217 214 189 194 192 200 207 214 219 205 201 207 219 227 232 240 243 248 243 255 261 259 262 262 265 268 269 260
7 9 79 173 188 207 209 211 206 209 223 226 227 218 217 221 220 219 215 215 214 216 217 203 203 202 201 197 192 192 194 209 214 215 217 218 217 216 226 233 237 242 247 254 255 256 256 262 263 264 264 268 280 280
354 5 10 51 165 198 203 186 193 204 212 221 223 222 221 224 224 224 223 217 217 212 204 200 200 198 203 206 200 205 206 212 219 220 228 233 235 237 235 237 239 245 250 255 260 264 266 266 268 269 269 271 272 274
338 345 356 360 7 8 100 140 171 184 196 203 216 221 219 222 221 222 224 215 215 215 210 211 207 203 214 217 217 221 220 220 227 228 234 239 241 243 245 245 239 250 267 258 259 256 260 259 264 259 248 250 262 269
311 319 322 332 338 340 346 358 357 185 185 188 197 208 214 216 218 221 221 221 224 227 220 218 220 219 220 227 227 226 227 232 236 239 243 247 248 253 259 258 264 252 254 272 266 265 264 261 254 257 257 260 265 267
290 286 291 298 305 309 310 308 310 314 197 201 205 209 213 216 220 217 219 222 227 229 229 226 228 227 228 232 236 236 238 241 241 243 247 252 256 258 263 265 266 273 258 256 253 255 257 256 262 259 262 264 266 263
275 268 272 276 279 280 286 281 278 281 275 247 217 214 215 220 223 226 226 226 229 235 229 230 230 235 238 238 239 243 249 252 255 259 259 259 246 264 252 255 258 262 254 247 242 248 249 255 261 257 257 258 261 256
267 263 262 258 261 265 259 261 263 264 259 257 264 254 229 224 223 224 227 228 229 230 232 235 238 239 239 242 244 247 250 252 254 257 258 260 249 250 252 259 263 256 256 253 241 254 257 258 260 259 255 254 252 256
285 340 261 257 247 247 253 256 254 253 255 254 250 260 262 247 237 231 230 233 236 236 236 237 239 242 245 248 249 250 250 254 256 257 257 258 260 272 257 258 249 254 253 253 256 245 255 258 260 262 259 255 256 251
6 285 270 271 256 249 246 246 250 249 249 249 248 250 250 254 251 253 248 246 243 242 243 245 246 246 246 248 251 254 256 257 258 260 260 257 252 251 250 252 252 245 255 256 254 256 255 255 257 256 256 258 255 253
359 4 289 267 260 257 246 243 246 247 250 250 248 246 251 250 247 253 253 252 249 248 248 249 252 253 254 252 252 251 251 253 253 253 253 252 255 257 255 251 251 251 249 250 252 255 257 257 258 258 257 257 258 257
352 357 2 353 267 259 255 247 245 244 245 247 248 249 249 246 241 245 251 253 253 248 246 248 251 256 254 248 250 250 251 252 254 255 256 255 256 256 254 256 255 251 251 254 255 257 258 257 257 257 258 258 260 261
352 350 355 358 276 295 298 295 248 247 247 246 244 244 247 249 246 241 241 247 250 251 250 246 243 248 255 255 255 256 257 256 258 259 257 259 261 261 260 258 257 256 254 254 251 255 256 257 258 259 260 262 263 265
347 346 351 353 354 303 302 301 299 270 251 250 249 248 245 244 244 245 244 243 243 247 250 252 247 248 246 250 252 254 253 252 254 255 257 259 260 262 263 264 265 266 266 266 265 264 260 261 261 261 262 262 263 263
344 345 350 351 350 351 305 304 297 293 289 251 249 248 248 246 246 245 244 241 242 242 244 246 249 251 250 245 248 251 254 253 251 251 253 256 257 258 258 258 260 263 263 264 265 266 267 265 262 262 263 263 261 262
341 345 347 347 348 349 347 308 299 296 294 290 253 252 249 247 245 245 248 248 242 243 246 246 247 249 251 248 246 248 248 247 250 251 255 258 257 258 257 258 260 260 261 261 260 262 267 267 267 265 262 259 258 258
340 342 343 343 345 346 347 323 304 300 295 292 294 248 244 245 246 237 233 242 240 242 242 243 245 247 249 251 250 244 249 250 249 250 250 251 253 256 257 256 257 258 260 262 263 263 264 264 264 265 265 265 264 257